Вернуться в каталог

FENGYUN 1C DEB

АктивенSSO
NORAD 31882·DEBRIS·🇨🇳 China

Запущен May 10, 1999 с Taiyuan Satellite Launch Center

Loading…

Ближайшие Пролёты (ближайшие 24 часа)

TLE

СвежийSource: Space-Track

Эпоха: Sep 14, 2026, 12:53 UTC

1 31882U 99025CKH 26257.53734620  .00000679  00000-0  38175-3 0  9998
2 31882  98.9209 184.2038 0035560 161.8030 198.4423 14.13541410625328

Отслеживайте FENGYUN 1C DEB в реальном времени с AllMySat

Download on the App Store